Location: Zagreb
(45.8000°N, 16.0000°E)
Time: 07:47:40
(UTC+02:00)

Courier 1B - Pass Details

Date: 14 August 2020
Orbit: 962 x 1209 km, 28.3° (Epoch: 27 September)

Event Time Altitude Azimuth Distance (km) Brightness Sun altitude
Rises 21:08:05 0° 247° (WSW) 3,974 11.2 -10.6°
Reaches altitude 10° 21:12:07 10° 228° (SW) 2,962 10.2 -11.2°
Maximum altitude 21:16:17 16° 192° (SSW) 2,470 9.4 -11.8°
Enters shadow 21:20:13 10° 157° (SSE) 2,832 9.4 -12.3°
Drops below altitude 10° 21:20:19 10° 156° (SSE) 2,851 - -12.3°
Sets 21:24:06 0° 136° (SE) 3,754 - -12.9°
